Tiempo cada hora Al Mashhad

Hoy, 30 Julio, Viernes

Tiempo Temperatura Precipitaciones Viento Presión Humedad
00:00 +25°C° 0 mm 1 mps 644 mmHg 75%
01:00 +26°C° 0.1 mm 1 mps 644 mmHg 73%
02:00 +26°C° 0.1 mm 1 mps 644 mmHg 72%
03:00 +26°C° 0.1 mm 1 mps 644 mmHg 70%
04:00 +26°C° 0 mm 1 mps 644 mmHg 70%
05:00 +26°C° 0 mm 1 mps 644 mmHg 70%
06:00 +26°C° 0 mm 1 mps 644 mmHg 70%
07:00 +27°C° 0 mm 1 mps 645 mmHg 64%
08:00 +27°C° 0 mm 2 mps 645 mmHg 58%
09:00 +28°C° 0 mm 2 mps 646 mmHg 52%
10:00 +29°C° 0 mm 3 mps 646 mmHg 50%
11:00 +32°C° 0 mm 4 mps 646 mmHg 47%
12:00 +33°C° 0 mm 5 mps 646 mmHg 44%
13:00 +32°C° 0.1 mm 6 mps 646 mmHg 47%
14:00 +32°C° 0.1 mm 6 mps 645 mmHg 50%
15:00 +30°C° 0.1 mm 7 mps 645 mmHg 53%
16:00 +29°C° 1.1 mm 6 mps 645 mmHg 59%
17:00 +28°C° 1.1 mm 5 mps 645 mmHg 65%
18:00 +27°C° 1.1 mm 4 mps 645 mmHg 70%
19:00 +26°C° 0 mm 3 mps 645 mmHg 72%
20:00 +26°C° 0 mm 2 mps 645 mmHg 74%
21:00 +26°C° 0 mm 1 mps 645 mmHg 76%
22:00 +26°C° 0.1 mm 1 mps 645 mmHg 77%
23:00 +25°C° 0.1 mm 1 mps 645 mmHg 78%

Mañana, 31 Julio, Sábado

Tiempo Temperatura Precipitaciones Viento Presión Humedad
00:00 +25°C° 0.1 mm 1 mps 645 mmHg 79%
01:00 +25°C° 0.3 mm 1 mps 645 mmHg 78%
02:00 +25°C° 0.3 mm 2 mps 644 mmHg 77%
03:00 +25°C° 0.3 mm 2 mps 644 mmHg 76%
04:00 +25°C° 0.2 mm 2 mps 645 mmHg 77%
05:00 +25°C° 0.2 mm 2 mps 645 mmHg 78%
06:00 +24°C° 0.2 mm 2 mps 645 mmHg 78%
07:00 +25°C° 0.3 mm 1 mps 645 mmHg 74%
08:00 +26°C° 0.3 mm 1 mps 646 mmHg 69%
09:00 +26°C° 0.3 mm 1 mps 646 mmHg 64%
10:00 +28°C° 0 mm 2 mps 646 mmHg 60%
11:00 +29°C° 0 mm 3 mps 646 mmHg 55%
12:00 +30°C° 0 mm 4 mps 646 mmHg 50%
13:00 +29°C° 0.2 mm 4 mps 646 mmHg 53%
14:00 +29°C° 0.2 mm 4 mps 646 mmHg 56%
15:00 +28°C° 0.2 mm 5 mps 645 mmHg 59%
16:00 +28°C° 0.1 mm 5 mps 645 mmHg 61%
17:00 +28°C° 0.1 mm 5 mps 645 mmHg 64%
18:00 +27°C° 0.1 mm 5 mps 645 mmHg 67%
19:00 +26°C° 0.6 mm 4 mps 645 mmHg 71%
20:00 +26°C° 0.6 mm 4 mps 646 mmHg 76%
21:00 +25°C° 0.6 mm 3 mps 646 mmHg 80%
22:00 +25°C° 0.3 mm 3 mps 646 mmHg 81%
23:00 +24°C° 0.3 mm 3 mps 646 mmHg 82%

Pasado mañana, 1 Agosto, Domingo

Tiempo Temperatura Precipitaciones Viento Presión Humedad
00:00 +24°C° 0.3 mm 2 mps 646 mmHg 84%
01:00 +24°C° 0.5 mm 2 mps 645 mmHg 83%
02:00 +24°C° 0.5 mm 2 mps 645 mmHg 83%
03:00 +24°C° 0.5 mm 2 mps 645 mmHg 82%
04:00 +24°C° 0 mm 1 mps 645 mmHg 81%
05:00 +24°C° 0 mm 1 mps 645 mmHg 80%
06:00 +24°C° 0 mm 1 mps 645 mmHg 79%
07:00 +25°C° 0 mm 2 mps 646 mmHg 71%
08:00 +27°C° 0 mm 2 mps 646 mmHg 63%
09:00 +28°C° 0 mm 3 mps 647 mmHg 55%
10:00 +28°C° 0.1 mm 4 mps 647 mmHg 56%
11:00 +28°C° 0.1 mm 5 mps 647 mmHg 57%
12:00 +29°C° 0.1 mm 6 mps 647 mmHg 58%
13:00 +28°C° 0.3 mm 6 mps 646 mmHg 62%
14:00 +27°C° 0.3 mm 6 mps 646 mmHg 66%
15:00 +26°C° 0.3 mm 6 mps 645 mmHg 69%
16:00 +26°C° 0.3 mm 5 mps 645 mmHg 73%
17:00 +25°C° 0.3 mm 4 mps 645 mmHg 76%
18:00 +25°C° 0.3 mm 4 mps 645 mmHg 80%
19:00 +23°C° 0.2 mm 4 mps 645 mmHg 81%
20:00 +23°C° 0.2 mm 4 mps 646 mmHg 83%
21:00 +24°C° 0.2 mm 3 mps 646 mmHg 84%
22:00 +24°C° 0.2 mm 3 mps 646 mmHg 85%
23:00 +24°C° 0.2 mm 3 mps 646 mmHg 86%

2 Agosto, Lunes

Tiempo Temperatura Precipitaciones Viento Presión Humedad
00:00 +23°C° 0.2 mm 2 mps 645 mmHg 87%
01:00 +22°C° 0.4 mm 3 mps 645 mmHg 87%
02:00 +22°C° 0.4 mm 4 mps 645 mmHg 87%
03:00 +21°C° 0.4 mm 4 mps 645 mmHg 87%
04:00 +21°C° 0.2 mm 4 mps 645 mmHg 88%
05:00 +21°C° 0.2 mm 3 mps 645 mmHg 89%
06:00 +21°C° 0.2 mm 3 mps 645 mmHg 90%
07:00 +21°C° 0.1 mm 2 mps 646 mmHg 89%
08:00 +21°C° 0.1 mm 2 mps 646 mmHg 88%
09:00 +23°C° 0.1 mm 2 mps 646 mmHg 87%
10:00 +24°C° 0.1 mm 3 mps 646 mmHg 81%
11:00 +25°C° 0.1 mm 3 mps 647 mmHg 75%
12:00 +26°C° 0.1 mm 4 mps 647 mmHg 69%
13:00 +26°C° 0.2 mm 4 mps 646 mmHg 69%
14:00 +26°C° 0.2 mm 4 mps 646 mmHg 69%
15:00 +26°C° 0.2 mm 4 mps 645 mmHg 69%
16:00 +26°C° 0.7 mm 4 mps 645 mmHg 70%
17:00 +25°C° 0.7 mm 3 mps 645 mmHg 72%
18:00 +24°C° 0.7 mm 3 mps 645 mmHg 74%
19:00 +24°C° 0.1 mm 2 mps 646 mmHg 76%
20:00 +24°C° 0.1 mm 2 mps 646 mmHg 78%
21:00 +24°C° 0.1 mm 2 mps 647 mmHg 80%
22:00 +24°C° 0.3 mm 2 mps 647 mmHg 82%
23:00 +23°C° 0.3 mm 2 mps 646 mmHg 84%

3 Agosto, Martes

Tiempo Temperatura Precipitaciones Viento Presión Humedad
00:00 +22°C° 0.3 mm 3 mps 646 mmHg 86%
01:00 +22°C° 0.5 mm 3 mps 646 mmHg 87%
02:00 +22°C° 0.5 mm 3 mps 646 mmHg 87%
03:00 +21°C° 0.5 mm 3 mps 646 mmHg 88%
04:00 +21°C° 0.1 mm 3 mps 646 mmHg 86%
05:00 +21°C° 0.1 mm 3 mps 646 mmHg 84%
06:00 +21°C° 0.1 mm 2 mps 646 mmHg 82%
07:00 +22°C° 0 mm 3 mps 646 mmHg 76%
08:00 +24°C° 0 mm 3 mps 647 mmHg 71%
09:00 +25°C° 0 mm 3 mps 647 mmHg 66%
10:00 +26°C° 0 mm 3 mps 647 mmHg 61%
11:00 +27°C° 0 mm 4 mps 647 mmHg 57%
12:00 +28°C° 0 mm 5 mps 647 mmHg 53%
13:00 +28°C° 0.1 mm 5 mps 647 mmHg 54%
14:00 +28°C° 0.1 mm 6 mps 647 mmHg 55%
15:00 +28°C° 0.1 mm 6 mps 646 mmHg 57%
16:00 +26°C° 1.8 mm 5 mps 646 mmHg 62%
17:00 +23°C° 1.8 mm 4 mps 646 mmHg 67%
18:00 +23°C° 1.8 mm 2 mps 646 mmHg 72%
19:00 +23°C° 0.1 mm 2 mps 647 mmHg 70%
20:00 +23°C° 0.1 mm 2 mps 647 mmHg 68%
21:00 +24°C° 0.1 mm 2 mps 647 mmHg 66%
22:00 +24°C° 0.2 mm 2 mps 647 mmHg 69%
23:00 +23°C° 0.2 mm 2 mps 647 mmHg 73%

4 Agosto, Miércoles

Tiempo Temperatura Precipitaciones Viento Presión Humedad
00:00 +23°C° 0.2 mm 2 mps 647 mmHg 77%
01:00 +22°C° 0 mm 3 mps 647 mmHg 78%
02:00 +22°C° 0 mm 3 mps 647 mmHg 80%
03:00 +22°C° 0 mm 3 mps 647 mmHg 81%
04:00 +22°C° 0 mm 3 mps 647 mmHg 81%
05:00 +22°C° 0 mm 3 mps 647 mmHg 80%
06:00 +22°C° 0 mm 3 mps 648 mmHg 80%
07:00 +22°C° 0 mm 3 mps 648 mmHg 76%
08:00 +24°C° 0 mm 3 mps 648 mmHg 73%
09:00 +24°C° 0 mm 3 mps 648 mmHg 69%
10:00 +25°C° 0 mm 3 mps 649 mmHg 65%
11:00 +26°C° 0 mm 4 mps 649 mmHg 61%
12:00 +27°C° 0 mm 4 mps 649 mmHg 57%
13:00 +27°C° 0.1 mm 5 mps 648 mmHg 57%
14:00 +28°C° 0.1 mm 6 mps 648 mmHg 58%
15:00 +28°C° 0.1 mm 6 mps 648 mmHg 59%
16:00 +27°C° 0.1 mm 5 mps 648 mmHg 62%
17:00 +26°C° 0.1 mm 5 mps 648 mmHg 65%
18:00 +26°C° 0.1 mm 4 mps 647 mmHg 69%
19:00 +25°C° 0.2 mm 3 mps 647 mmHg 73%
20:00 +24°C° 0.2 mm 3 mps 648 mmHg 77%
21:00 +24°C° 0.2 mm 3 mps 648 mmHg 81%
22:00 +24°C° 0.3 mm 2 mps 648 mmHg 81%
23:00 +24°C° 0.3 mm 2 mps 647 mmHg 81%
Mostrar más

Necesitamos Su Consentimiento

Meteoprog y nuestros Proveedores de Servicios pueden almacenar y acceder a sus datos personales como cookies, identificadores de dispositivo u otras tecnologías similares de su dispositivo y procesar dichos datos para personalizar contenido y anuncios, además de ofrecer funciones de redes sociales y analizar el tráfico.

  • Almacenar y/o acceder a información en su dispositivo

    Se puede almacenar o acceder a cookies, identificadores de dispositivo u otra información de su dispositivo para los fines anteriormente indicados.

  • Anuncios y contenido personalizados, medición de anuncios y contenido, percepciones del público, y desarrollo de productos

    Los anuncios y el contenido pueden personalizarse en base a su perfil. Se pueden añadir más datos para personalizar mejor los anuncios y contenidos. Se puede medir el rendimiento de los anuncios y contenidos. Se puede obtener la percepción sobre el público que ha visto los anuncios y contenidos. Dichos datos pueden usarse para desarrollar o mejorar la experiencia del usuario, sistemas y software.

Al hacer clic en ‘Estoy De Acuerdo’ usted permitirá el uso de las cookies, identificadores de dispositivo, balizas web u otras tecnologías similares indicadas. Su configuración puede cambiarse desde el navegador de su dispositivo.

Para ciertos fines, los intereses legítimos pueden ser considerados por encima del consentimiento. Puede leer más sobre ello en nuestra Política de Privacidad y Cookies.